Time,TemperatureF,DewpointF,PressureIn,WindDirection,WindDirectionDegrees,WindSpeedMPH,WindSpeedGustMPH,Humidity,HourlyPrecipIn,Conditions,Clouds,dailyrainin,SoftwareType,DateUTC
2013-05-13 00:01:00,56.5,37.1,30.05,NNW,331,1.0,4.0,48,0.00,,---,0.00,VWS V14.01,2013-05-13 04:01:00,
2013-05-13 00:06:00,56.2,37.3,30.05,NNE,22,0.0,1.0,49,0.00,,---,0.00,VWS V14.01,2013-05-13 04:06:00,
2013-05-13 00:11:00,56.0,37.6,30.06,NNE,25,0.0,0.0,50,0.00,,---,0.00,VWS V14.01,2013-05-13 04:11:00,
2013-05-13 00:16:00,55.7,36.8,30.06,North,359,0.0,0.0,49,0.00,,---,0.00,VWS V14.01,2013-05-13 04:16:00,
2013-05-13 00:21:00,55.5,37.2,30.06,NNW,335,0.0,0.0,50,0.00,,---,0.00,VWS V14.01,2013-05-13 04:21:00,
2013-05-13 00:26:00,55.3,37.0,30.06,NNW,335,0.0,0.0,50,0.00,,---,0.00,VWS V14.01,2013-05-13 04:26:00,
2013-05-13 00:31:00,55.3,37.0,30.06,NNW,344,1.0,1.0,50,0.00,,---,0.00,VWS V14.01,2013-05-13 04:31:00,
2013-05-13 00:36:00,55.1,36.8,30.06,NNW,344,0.0,1.0,50,0.00,,---,0.00,VWS V14.01,2013-05-13 04:36:00,
2013-05-13 00:41:00,54.8,38.0,30.06,NW,323,0.0,2.0,53,0.00,,---,0.00,VWS V14.01,2013-05-13 04:41:00,
2013-05-13 00:46:00,54.5,38.7,30.07,NNW,333,0.0,0.0,55,0.00,,---,0.00,VWS V14.01,2013-05-13 04:46:00,
2013-05-13 00:51:00,54.0,38.2,30.07,NNW,333,0.0,0.0,55,0.00,,---,0.00,VWS V14.01,2013-05-13 04:51:00,
2013-05-13 00:56:00,53.5,38.2,30.06,NNW,336,0.0,1.0,56,0.00,,---,0.00,VWS V14.01,2013-05-13 04:56:00,
2013-05-13 01:01:00,53.2,38.8,30.06,NNW,335,0.0,0.0,58,0.00,,---,0.00,VWS V14.01,2013-05-13 05:01:00,
2013-05-13 01:06:00,53.0,38.6,30.06,NNW,335,0.0,0.0,58,0.00,,---,0.00,VWS V14.01,2013-05-13 05:06:00,
2013-05-13 01:11:00,52.8,38.9,30.06,NNW,338,0.0,0.0,59,0.00,,---,0.00,VWS V14.01,2013-05-13 05:11:00,
2013-05-13 01:16:00,52.5,37.7,30.06,NNW,338,0.0,0.0,57,0.00,,---,0.00,VWS V14.01,2013-05-13 05:16:00,
2013-05-13 01:21:00,52.6,36.9,30.06,North,358,1.0,1.0,55,0.00,,---,0.00,VWS V14.01,2013-05-13 05:21:00,
2013-05-13 01:26:00,52.8,36.6,30.06,North,355,1.0,1.0,54,0.00,,---,0.00,VWS V14.01,2013-05-13 05:26:00,
2013-05-13 01:31:00,53.0,37.3,30.07,NNW,330,0.0,0.0,55,0.00,,---,0.00,VWS V14.01,2013-05-13 05:31:00,
2013-05-13 01:36:00,52.8,37.5,30.07,NNE,25,0.0,0.0,56,0.00,,---,0.00,VWS V14.01,2013-05-13 05:36:00,
2013-05-13 01:42:00,52.5,36.8,30.07,NE,34,0.0,0.0,55,0.00,,---,0.00,VWS V14.01,2013-05-13 05:42:00,
2013-05-13 01:46:00,52.4,36.3,30.07,NE,34,0.0,0.0,54,0.00,,---,0.00,VWS V14.01,2013-05-13 05:46:00,
2013-05-13 01:52:00,52.2,37.0,30.07,NNE,32,0.0,1.0,56,0.00,,---,0.00,VWS V14.01,2013-05-13 05:52:00,
2013-05-13 01:57:00,51.8,37.1,30.06,NNE,31,0.0,0.0,57,0.00,,---,0.00,VWS V14.01,2013-05-13 05:57:00,
2013-05-13 02:02:00,51.5,37.2,30.07,NNW,342,0.0,0.0,58,0.00,,---,0.00,VWS V14.01,2013-05-13 06:02:00,
2013-05-13 02:07:00,51.4,38.4,30.07,NNW,337,0.0,1.0,61,0.00,,---,0.00,VWS V14.01,2013-05-13 06:07:00,
2013-05-13 02:12:00,51.2,38.2,30.06,NNW,338,0.0,2.0,61,0.00,,---,0.00,VWS V14.01,2013-05-13 06:12:00,
2013-05-13 02:17:00,51.1,38.5,30.07,NNW,337,0.0,1.0,62,0.00,,---,0.00,VWS V14.01,2013-05-13 06:17:00,
2013-05-13 02:22:00,50.9,38.8,30.07,NNW,338,0.0,2.0,63,0.00,,---,0.00,VWS V14.01,2013-05-13 06:22:00,
2013-05-13 02:27:00,50.7,38.6,30.07,NNE,22,0.0,1.0,63,0.00,,---,0.00,VWS V14.01,2013-05-13 06:27:00,
2013-05-13 02:32:00,50.4,38.7,30.07,NNE,22,0.0,0.0,64,0.00,,---,0.00,VWS V14.01,2013-05-13 06:32:00,
2013-05-13 02:37:00,50.8,38.3,30.07,NNE,23,0.0,1.0,62,0.00,,---,0.00,VWS V14.01,2013-05-13 06:37:00,
2013-05-13 02:42:00,50.9,38.4,30.07,NNE,19,0.0,1.0,62,0.00,,---,0.00,VWS V14.01,2013-05-13 06:42:00,
2013-05-13 02:47:00,50.8,38.7,30.07,North,354,0.0,1.0,63,0.00,,---,0.00,VWS V14.01,2013-05-13 06:47:00,
2013-05-13 02:52:00,50.5,38.8,30.07,North,354,0.0,0.0,64,0.00,,---,0.00,VWS V14.01,2013-05-13 06:52:00,
2013-05-13 02:57:00,50.1,38.8,30.07,North,8,1.0,1.0,65,0.00,,---,0.00,VWS V14.01,2013-05-13 06:57:00,
2013-05-13 03:02:00,49.9,38.6,30.07,North,1,1.0,2.0,65,0.00,,---,0.00,VWS V14.01,2013-05-13 07:02:00,
2013-05-13 03:07:00,49.9,39.0,30.07,North,350,1.0,2.0,66,0.00,,---,0.00,VWS V14.01,2013-05-13 07:07:00,
2013-05-13 03:12:00,49.9,39.0,30.07,NNW,333,0.0,1.0,66,0.00,,---,0.00,VWS V14.01,2013-05-13 07:12:00,
2013-05-13 03:17:00,49.8,39.3,30.07,NNW,337,0.0,2.0,67,0.00,,---,0.00,VWS V14.01,2013-05-13 07:17:00,
2013-05-13 03:22:00,49.6,39.1,30.07,North,349,1.0,2.0,67,0.00,,---,0.00,VWS V14.01,2013-05-13 07:22:00,
2013-05-13 03:27:00,49.5,39.0,30.07,North,353,0.0,1.0,67,0.00,,---,0.00,VWS V14.01,2013-05-13 07:27:00,
2013-05-13 03:32:00,49.3,39.2,30.08,North,353,0.0,0.0,68,0.00,,---,0.00,VWS V14.01,2013-05-13 07:32:00,
2013-05-13 03:37:00,49.1,39.0,30.08,NNE,22,0.0,1.0,68,0.00,,---,0.00,VWS V14.01,2013-05-13 07:37:00,
2013-05-13 03:42:00,49.0,38.9,30.08,NNE,22,0.0,0.0,68,0.00,,---,0.00,VWS V14.01,2013-05-13 07:42:00,
2013-05-13 03:47:00,48.8,39.1,30.08,NNW,333,2.0,2.0,69,0.00,,---,0.00,VWS V14.01,2013-05-13 07:47:00,
2013-05-13 03:52:00,48.8,39.1,30.08,NNW,336,0.0,1.0,69,0.00,,---,0.00,VWS V14.01,2013-05-13 07:52:00,
2013-05-13 03:57:00,48.7,39.0,30.09,NNW,336,0.0,2.0,69,0.00,,---,0.00,VWS V14.01,2013-05-13 07:57:00,
2013-05-13 04:02:00,48.8,39.1,30.09,NNW,333,1.0,3.0,69,0.00,,---,0.00,VWS V14.01,2013-05-13 08:02:00,
2013-05-13 04:07:00,48.9,39.2,30.09,NNW,339,0.0,3.0,69,0.00,,---,0.00,VWS V14.01,2013-05-13 08:07:00,
2013-05-13 04:12:00,48.8,39.1,30.09,North,353,0.0,1.0,69,0.00,,---,0.00,VWS V14.01,2013-05-13 08:12:00,
2013-05-13 04:17:00,48.6,39.3,30.09,NNE,23,0.0,1.0,70,0.00,,---,0.00,VWS V14.01,2013-05-13 08:17:00,
2013-05-13 04:22:00,48.5,39.2,30.09,NNW,336,1.0,2.0,70,0.00,,---,0.00,VWS V14.01,2013-05-13 08:22:00,
2013-05-13 04:27:00,48.5,39.2,30.10,NNW,333,0.0,1.0,70,0.00,,---,0.00,VWS V14.01,2013-05-13 08:27:00,
2013-05-13 04:32:00,48.5,39.2,30.10,NNW,330,0.0,1.0,70,0.00,,---,0.00,VWS V14.01,2013-05-13 08:32:00,
2013-05-13 04:37:00,48.3,39.3,30.10,NNW,330,0.0,1.0,71,0.00,,---,0.00,VWS V14.01,2013-05-13 08:37:00,
2013-05-13 04:42:00,48.0,39.1,30.10,NNW,333,0.0,1.0,71,0.00,,---,0.00,VWS V14.01,2013-05-13 08:42:00,
2013-05-13 04:47:00,47.8,39.6,30.10,NNW,329,0.0,2.0,73,0.00,,---,0.00,VWS V14.01,2013-05-13 08:47:00,
2013-05-13 04:52:00,47.6,39.7,30.10,NNW,332,0.0,1.0,74,0.00,,---,0.00,VWS V14.01,2013-05-13 08:52:00,
2013-05-13 04:57:00,47.3,39.8,30.10,NNW,332,0.0,1.0,75,0.00,,---,0.00,VWS V14.01,2013-05-13 08:57:00,
2013-05-13 05:02:00,47.1,39.9,30.10,NNW,328,2.0,3.0,76,0.00,,---,0.00,VWS V14.01,2013-05-13 09:02:00,
2013-05-13 05:07:00,46.8,40.0,30.11,NNW,330,0.0,2.0,77,0.00,,---,0.00,VWS V14.01,2013-05-13 09:07:00,
2013-05-13 05:13:00,46.7,40.2,30.10,NNW,333,0.0,1.0,78,0.00,,---,0.00,VWS V14.01,2013-05-13 09:13:00,
2013-05-13 05:18:00,46.5,40.0,30.11,NNW,333,1.0,1.0,78,0.00,,---,0.00,VWS V14.01,2013-05-13 09:18:00,
2013-05-13 05:23:00,46.5,40.3,30.11,NNW,333,0.0,1.0,79,0.00,,---,0.00,VWS V14.01,2013-05-13 09:23:00,
2013-05-13 05:28:00,46.4,40.2,30.10,NNW,328,0.0,1.0,79,0.00,,---,0.00,VWS V14.01,2013-05-13 09:28:00,
2013-05-13 05:33:00,46.3,40.2,30.11,NNW,332,0.0,1.0,79,0.00,,---,0.00,VWS V14.01,2013-05-13 09:33:00,
2013-05-13 05:38:00,46.2,40.1,30.11,NNW,332,1.0,2.0,79,0.00,,---,0.00,VWS V14.01,2013-05-13 09:38:00,
2013-05-13 05:43:00,46.1,40.3,30.11,NNW,333,0.0,1.0,80,0.00,,---,0.00,VWS V14.01,2013-05-13 09:43:00,
2013-05-13 05:48:00,46.0,40.2,30.11,NNW,330,0.0,1.0,80,0.00,,---,0.00,VWS V14.01,2013-05-13 09:48:00,
2013-05-13 05:53:00,45.9,40.1,30.12,NNW,337,0.0,2.0,80,0.00,,---,0.00,VWS V14.01,2013-05-13 09:53:00,
2013-05-13 05:58:00,45.9,40.1,30.12,NNW,338,0.0,2.0,80,0.00,,---,0.00,VWS V14.01,2013-05-13 09:58:00,
2013-05-13 06:03:00,45.7,40.2,30.12,NNW,337,0.0,1.0,81,0.00,,---,0.00,VWS V14.01,2013-05-13 10:03:00,
2013-05-13 06:08:00,45.5,40.0,30.12,NNW,337,0.0,1.0,81,0.00,,---,0.00,VWS V14.01,2013-05-13 10:08:00,
2013-05-13 06:13:00,45.5,40.0,30.12,NNW,339,0.0,1.0,81,0.00,,---,0.00,VWS V14.01,2013-05-13 10:13:00,
2013-05-13 06:18:00,45.4,40.2,30.12,NNW,335,0.0,1.0,82,0.00,,---,0.00,VWS V14.01,2013-05-13 10:18:00,
2013-05-13 06:23:00,45.3,40.1,30.13,NNW,335,0.0,1.0,82,0.00,,---,0.00,VWS V14.01,2013-05-13 10:23:00,
2013-05-13 06:28:00,45.2,40.3,30.13,NNW,334,0.0,1.0,83,0.00,,---,0.00,VWS V14.01,2013-05-13 10:28:00,
2013-05-13 06:33:00,45.2,40.3,30.13,NNW,333,0.0,1.0,83,0.00,,---,0.00,VWS V14.01,2013-05-13 10:33:00,
2013-05-13 06:38:00,45.2,40.3,30.14,NNW,333,0.0,2.0,83,0.00,,---,0.00,VWS V14.01,2013-05-13 10:38:00,
2013-05-13 06:43:00,45.1,40.6,30.14,NNW,333,0.0,1.0,84,0.00,,---,0.00,VWS V14.01,2013-05-13 10:43:00,
2013-05-13 06:48:00,45.0,40.5,30.14,NNW,328,0.0,2.0,84,0.00,,---,0.00,VWS V14.01,2013-05-13 10:48:00,
2013-05-13 06:53:00,45.1,40.2,30.14,NNW,337,0.0,2.0,83,0.00,,---,0.00,VWS V14.01,2013-05-13 10:53:00,
2013-05-13 06:58:00,45.3,40.1,30.14,NNW,340,0.0,2.0,82,0.00,,---,0.00,VWS V14.01,2013-05-13 10:58:00,
2013-05-13 07:03:00,45.5,40.3,30.14,NNW,340,2.0,2.0,82,0.00,,---,0.00,VWS V14.01,2013-05-13 11:03:00,
2013-05-13 07:08:00,45.7,40.5,30.15,NNW,328,0.0,2.0,82,0.00,,---,0.00,VWS V14.01,2013-05-13 11:08:00,
2013-05-13 07:13:00,46.1,40.9,30.15,NW,326,0.0,2.0,82,0.00,,---,0.00,VWS V14.01,2013-05-13 11:13:00,
2013-05-13 07:18:00,46.3,40.8,30.15,NW,326,1.0,3.0,81,0.00,,---,0.00,VWS V14.01,2013-05-13 11:18:00,
2013-05-13 07:23:00,46.4,41.2,30.15,NNW,328,1.0,3.0,82,0.00,,---,0.00,VWS V14.01,2013-05-13 11:23:00,
2013-05-13 07:28:00,46.4,41.2,30.15,NNW,328,1.0,2.0,82,0.00,,---,0.00,VWS V14.01,2013-05-13 11:28:00,
2013-05-13 07:33:00,46.5,41.0,30.16,NW,326,1.0,3.0,81,0.00,,---,0.00,VWS V14.01,2013-05-13 11:33:00,
2013-05-13 07:38:00,46.8,41.3,30.16,NNW,337,2.0,3.0,81,0.00,,---,0.00,VWS V14.01,2013-05-13 11:38:00,
2013-05-13 07:43:00,47.0,41.5,30.16,North,10,2.0,4.0,81,0.00,,---,0.00,VWS V14.01,2013-05-13 11:43:00,
2013-05-13 07:48:00,47.3,41.8,30.16,NNW,329,3.0,4.0,81,0.00,,---,0.00,VWS V14.01,2013-05-13 11:48:00,
2013-05-13 07:53:00,47.6,41.8,30.16,WNW,301,1.0,5.0,80,0.00,,---,0.00,VWS V14.01,2013-05-13 11:53:00,
2013-05-13 07:58:00,48.2,42.0,30.17,NNW,335,2.0,4.0,79,0.00,,---,0.00,VWS V14.01,2013-05-13 11:58:00,
2013-05-13 08:03:00,48.8,41.9,30.16,NNW,347,2.0,4.0,77,0.00,,---,0.00,VWS V14.01,2013-05-13 12:03:00,
2013-05-13 08:08:00,49.4,41.5,30.17,NNW,342,4.0,6.0,74,0.00,,---,0.00,VWS V14.01,2013-05-13 12:08:00,
2013-05-13 08:13:00,50.1,42.2,30.17,North,356,1.0,4.0,74,0.00,,---,0.00,VWS V14.01,2013-05-13 12:13:00,
2013-05-13 08:18:00,50.6,41.6,30.17,NE,34,0.0,5.0,71,0.00,,---,0.00,VWS V14.01,2013-05-13 12:18:00,
2013-05-13 08:23:00,51.2,41.8,30.17,NNW,330,1.0,5.0,70,0.00,,---,0.00,VWS V14.01,2013-05-13 12:23:00,
2013-05-13 08:28:00,51.6,41.8,30.17,NNE,27,1.0,6.0,69,0.00,,---,0.00,VWS V14.01,2013-05-13 12:28:00,
2013-05-13 08:33:00,52.1,41.5,30.17,North,352,2.0,5.0,67,0.00,,---,0.00,VWS V14.01,2013-05-13 12:33:00,
2013-05-13 08:38:00,52.7,42.5,30.18,NNE,25,2.0,3.0,68,0.00,,---,0.00,VWS V14.01,2013-05-13 12:38:00,
2013-05-13 08:43:00,53.3,42.2,30.18,NW,314,1.0,3.0,66,0.00,,---,0.00,VWS V14.01,2013-05-13 12:43:00,
2013-05-13 08:48:00,53.9,42.0,30.18,North,349,3.0,4.0,64,0.00,,---,0.00,VWS V14.01,2013-05-13 12:48:00,
2013-05-13 08:53:00,54.5,41.3,30.18,North,356,4.0,7.0,61,0.00,,---,0.00,VWS V14.01,2013-05-13 12:53:00,
2013-05-13 08:59:00,55.1,41.5,30.18,NE,40,3.0,4.0,60,0.00,,---,0.00,VWS V14.01,2013-05-13 12:59:00,
2013-05-13 09:04:00,55.5,40.5,30.18,NNE,18,1.0,9.0,57,0.00,,---,0.00,VWS V14.01,2013-05-13 13:04:00,
2013-05-13 09:09:00,56.1,40.6,30.18,NE,53,6.0,6.0,56,0.00,,---,0.00,VWS V14.01,2013-05-13 13:09:00,
2013-05-13 09:14:00,56.4,40.0,30.18,NE,43,2.0,9.0,54,0.00,,---,0.00,VWS V14.01,2013-05-13 13:14:00,
2013-05-13 09:19:00,56.5,39.6,30.18,NE,39,3.0,6.0,53,0.00,,---,0.00,VWS V14.01,2013-05-13 13:19:00,
2013-05-13 09:24:00,56.9,39.0,30.18,ENE,65,1.0,5.0,51,0.00,,---,0.00,VWS V14.01,2013-05-13 13:24:00,
2013-05-13 09:29:00,57.3,36.7,30.18,NE,51,5.0,12.0,46,0.00,,---,0.00,VWS V14.01,2013-05-13 13:29:00,
2013-05-13 09:34:00,56.7,37.2,30.18,NNW,333,3.0,10.0,48,0.00,,---,0.00,VWS V14.01,2013-05-13 13:34:00,
2013-05-13 09:39:00,57.4,38.4,30.18,NE,44,0.0,4.0,49,0.00,,---,0.00,VWS V14.01,2013-05-13 13:39:00,
2013-05-13 09:44:00,57.8,37.7,30.19,NNE,18,4.0,7.0,47,0.00,,---,0.00,VWS V14.01,2013-05-13 13:44:00,
2013-05-13 09:49:00,58.1,38.5,30.18,West,278,0.0,8.0,48,0.00,,---,0.00,VWS V14.01,2013-05-13 13:49:00,
2013-05-13 09:54:00,58.6,38.5,30.19,NE,39,2.0,7.0,47,0.00,,---,0.00,VWS V14.01,2013-05-13 13:54:00,
2013-05-13 09:59:00,58.8,37.0,30.18,NNW,329,0.0,11.0,44,0.00,,---,0.00,VWS V14.01,2013-05-13 13:59:00,
2013-05-13 10:04:00,58.8,37.5,30.19,North,359,1.0,9.0,45,0.00,,---,0.00,VWS V14.01,2013-05-13 14:04:00,
2013-05-13 10:09:00,59.0,36.6,30.19,NE,47,2.0,9.0,43,0.00,,---,0.00,VWS V14.01,2013-05-13 14:09:00,
2013-05-13 10:14:00,58.9,36.5,30.19,NNW,339,2.0,12.0,43,0.00,,---,0.00,VWS V14.01,2013-05-13 14:14:00,
2013-05-13 10:19:00,59.2,35.5,30.19,NNE,32,3.0,11.0,41,0.00,,---,0.00,VWS V14.01,2013-05-13 14:19:00,
2013-05-13 10:24:00,59.4,35.7,30.19,North,5,2.0,6.0,41,0.00,,---,0.00,VWS V14.01,2013-05-13 14:24:00,
2013-05-13 10:29:00,59.4,35.1,30.19,NE,46,4.0,8.0,40,0.00,,---,0.00,VWS V14.01,2013-05-13 14:29:00,
2013-05-13 10:34:00,59.5,35.8,30.19,WSW,250,1.0,9.0,41,0.00,,---,0.00,VWS V14.01,2013-05-13 14:34:00,
2013-05-13 10:39:00,59.5,34.5,30.19,NNW,340,5.0,10.0,39,0.00,,---,0.00,VWS V14.01,2013-05-13 14:39:00,
2013-05-13 10:44:00,59.9,36.2,30.19,NNW,344,6.0,6.0,41,0.00,,---,0.00,VWS V14.01,2013-05-13 14:44:00,
2013-05-13 10:49:00,59.9,35.5,30.19,NNW,335,2.0,9.0,40,0.00,,---,0.00,VWS V14.01,2013-05-13 14:49:00,
2013-05-13 10:54:00,59.9,36.8,30.19,North,354,0.0,5.0,42,0.00,,---,0.00,VWS V14.01,2013-05-13 14:54:00,
2013-05-13 10:59:00,60.1,36.3,30.19,North,356,5.0,10.0,41,0.00,,---,0.00,VWS V14.01,2013-05-13 14:59:00,
2013-05-13 11:04:00,60.3,36.5,30.19,NE,49,1.0,7.0,41,0.00,,---,0.00,VWS V14.01,2013-05-13 15:04:00,
2013-05-13 11:09:00,60.7,36.9,30.19,ENE,66,5.0,10.0,41,0.00,,---,0.00,VWS V14.01,2013-05-13 15:09:00,
2013-05-13 11:14:00,60.5,36.1,30.19,East,85,5.0,6.0,40,0.00,,---,0.00,VWS V14.01,2013-05-13 15:14:00,
2013-05-13 11:19:00,60.7,36.3,30.19,WNW,291,1.0,9.0,40,0.00,,---,0.00,VWS V14.01,2013-05-13 15:19:00,
2013-05-13 11:24:00,61.1,35.3,30.19,North,10,5.0,8.0,38,0.00,,---,0.00,VWS V14.01,2013-05-13 15:24:00,
2013-05-13 11:30:00,61.6,35.8,30.19,West,274,3.0,4.0,38,0.00,,---,0.00,VWS V14.01,2013-05-13 15:30:00,
2013-05-13 11:35:00,61.7,36.5,30.18,NW,312,5.0,5.0,39,0.00,,---,0.00,VWS V14.01,2013-05-13 15:35:00,
2013-05-13 11:40:00,61.7,35.9,30.18,NE,51,0.0,5.0,38,0.00,,---,0.00,VWS V14.01,2013-05-13 15:40:00,
2013-05-13 11:45:00,61.9,36.0,30.18,North,358,9.0,13.0,38,0.00,,---,0.00,VWS V14.01,2013-05-13 15:45:00,
2013-05-13 11:50:00,61.6,35.8,30.18,West,267,0.0,9.0,38,0.00,,---,0.00,VWS V14.01,2013-05-13 15:50:00,
2013-05-13 11:55:00,62.0,35.5,30.18,NW,304,1.0,7.0,37,0.00,,---,0.00,VWS V14.01,2013-05-13 15:55:00,
2013-05-13 12:00:00,61.6,35.1,30.18,NNW,333,2.0,10.0,37,0.00,,---,0.00,VWS V14.01,2013-05-13 16:00:00,
2013-05-13 12:05:00,61.4,34.9,30.18,SSE,158,0.0,8.0,37,0.00,,---,0.00,VWS V14.01,2013-05-13 16:05:00,
2013-05-13 12:10:00,62.0,36.1,30.18,NNW,330,7.0,12.0,38,0.00,,---,0.00,VWS V14.01,2013-05-13 16:10:00,
2013-05-13 12:15:00,61.8,34.6,30.18,SE,144,1.0,8.0,36,0.00,,---,0.00,VWS V14.01,2013-05-13 16:15:00,
2013-05-13 12:20:00,62.0,37.4,30.17,WNW,288,1.0,13.0,40,0.00,,---,0.00,VWS V14.01,2013-05-13 16:20:00,
2013-05-13 12:25:00,62.6,37.3,30.17,WNW,289,5.0,12.0,39,0.00,,---,0.00,VWS V14.01,2013-05-13 16:25:00,
2013-05-13 12:30:00,62.7,35.4,30.17,NW,322,4.0,15.0,36,0.00,,---,0.00,VWS V14.01,2013-05-13 16:30:00,
2013-05-13 12:35:00,63.1,37.1,30.17,West,280,2.0,4.0,38,0.00,,---,0.00,VWS V14.01,2013-05-13 16:35:00,
2013-05-13 12:40:00,63.1,35.7,30.17,NNW,328,4.0,9.0,36,0.00,,---,0.00,VWS V14.01,2013-05-13 16:40:00,
2013-05-13 12:45:00,63.0,35.7,30.17,WNW,293,1.0,12.0,36,0.00,,---,0.00,VWS V14.01,2013-05-13 16:45:00,
2013-05-13 12:50:00,63.4,36.7,30.16,NNW,329,7.0,12.0,37,0.00,,---,0.00,VWS V14.01,2013-05-13 16:50:00,
2013-05-13 12:55:00,63.7,36.3,30.16,SW,231,5.0,9.0,36,0.00,,---,0.00,VWS V14.01,2013-05-13 16:55:00,
2013-05-13 13:00:00,63.3,36.6,30.16,NW,309,2.0,8.0,37,0.00,,---,0.00,VWS V14.01,2013-05-13 17:00:00,
2013-05-13 13:05:00,63.8,36.4,30.16,WNW,298,7.0,10.0,36,0.00,,---,0.00,VWS V14.01,2013-05-13 17:05:00,
2013-05-13 13:10:00,63.1,35.0,30.16,WNW,293,2.0,6.0,35,0.00,,---,0.00,VWS V14.01,2013-05-13 17:10:00,
2013-05-13 13:15:00,63.0,35.7,30.15,NW,326,3.0,14.0,36,0.00,,---,0.00,VWS V14.01,2013-05-13 17:15:00,
2013-05-13 13:20:00,63.8,36.4,30.15,WNW,291,1.0,9.0,36,0.00,,---,0.00,VWS V14.01,2013-05-13 17:20:00,
2013-05-13 13:25:00,63.8,34.9,30.15,NNE,20,7.0,11.0,34,0.00,,---,0.00,VWS V14.01,2013-05-13 17:25:00,
2013-05-13 13:30:00,63.5,36.8,30.15,West,273,8.0,10.0,37,0.00,,---,0.00,VWS V14.01,2013-05-13 17:30:00,
2013-05-13 13:35:00,63.7,37.0,30.14,SW,233,0.0,8.0,37,0.00,,---,0.00,VWS V14.01,2013-05-13 17:35:00,
2013-05-13 13:40:00,63.7,36.3,30.14,NW,314,6.0,9.0,36,0.00,,---,0.00,VWS V14.01,2013-05-13 17:40:00,
2013-05-13 13:45:00,64.0,35.8,30.14,WNW,283,7.0,11.0,35,0.00,,---,0.00,VWS V14.01,2013-05-13 17:45:00,
2013-05-13 13:50:00,63.8,34.9,30.14,NW,305,12.0,15.0,34,0.00,,---,0.00,VWS V14.01,2013-05-13 17:50:00,
2013-05-13 13:55:00,63.9,35.0,30.14,SW,231,7.0,16.0,34,0.00,,---,0.00,VWS V14.01,2013-05-13 17:55:00,
2013-05-13 14:00:00,64.4,35.5,30.14,WNW,298,6.0,10.0,34,0.00,,---,0.00,VWS V14.01,2013-05-13 18:00:00,
2013-05-13 14:05:00,64.3,35.4,30.13,West,279,7.0,11.0,34,0.00,,---,0.00,VWS V14.01,2013-05-13 18:05:00,
2013-05-13 14:10:00,64.3,35.4,30.13,WNW,283,2.0,13.0,34,0.00,,---,0.00,VWS V14.01,2013-05-13 18:10:00,
2013-05-13 14:15:00,64.1,35.9,30.13,WNW,292,7.0,14.0,35,0.00,,---,0.00,VWS V14.01,2013-05-13 18:15:00,
2013-05-13 14:20:00,64.2,34.5,30.13,West,270,11.0,16.0,33,0.00,,---,0.00,VWS V14.01,2013-05-13 18:20:00,
2013-05-13 14:25:00,63.8,34.9,30.13,WSW,239,3.0,11.0,34,0.00,,---,0.00,VWS V14.01,2013-05-13 18:25:00,
2013-05-13 14:30:00,63.9,36.5,30.12,WNW,287,5.0,9.0,36,0.00,,---,0.00,VWS V14.01,2013-05-13 18:30:00,
2013-05-13 14:36:00,64.7,37.8,30.12,NW,326,8.0,16.0,37,0.00,,---,0.00,VWS V14.01,2013-05-13 18:36:00,
2013-05-13 14:41:00,65.0,35.2,30.12,North,358,1.0,12.0,33,0.00,,---,0.00,VWS V14.01,2013-05-13 18:41:00,
2013-05-13 14:46:00,65.2,38.3,30.12,WNW,285,2.0,7.0,37,0.00,,---,0.00,VWS V14.01,2013-05-13 18:46:00,
2013-05-13 14:51:00,65.3,36.2,30.11,NW,304,3.0,14.0,34,0.00,,---,0.00,VWS V14.01,2013-05-13 18:51:00,
2013-05-13 14:56:00,65.5,37.2,30.11,WNW,285,4.0,12.0,35,0.00,,---,0.00,VWS V14.01,2013-05-13 18:56:00,
2013-05-13 15:01:00,65.7,35.8,30.11,WNW,290,3.0,12.0,33,0.00,,---,0.00,VWS V14.01,2013-05-13 19:01:00,
2013-05-13 15:06:00,65.6,35.0,30.11,NW,304,0.0,12.0,32,0.00,,---,0.00,VWS V14.01,2013-05-13 19:06:00,
2013-05-13 15:11:00,65.4,34.0,30.11,WNW,283,2.0,17.0,31,0.00,,---,0.00,VWS V14.01,2013-05-13 19:11:00,
2013-05-13 15:16:00,65.6,35.8,30.11,NNE,32,0.0,10.0,33,0.00,,---,0.00,VWS V14.01,2013-05-13 19:16:00,
2013-05-13 15:21:00,65.9,36.0,30.11,WNW,300,1.0,14.0,33,0.00,,---,0.00,VWS V14.01,2013-05-13 19:21:00,
2013-05-13 15:26:00,66.2,37.0,30.10,NNW,330,0.0,11.0,34,0.00,,---,0.00,VWS V14.01,2013-05-13 19:26:00,
2013-05-13 15:31:00,66.3,37.1,30.10,NW,314,6.0,14.0,34,0.00,,---,0.00,VWS V14.01,2013-05-13 19:31:00,
2013-05-13 15:36:00,66.2,36.3,30.10,SSW,207,1.0,11.0,33,0.00,,---,0.00,VWS V14.01,2013-05-13 19:36:00,
2013-05-13 15:41:00,66.5,35.8,30.09,WNW,283,3.0,10.0,32,0.00,,---,0.00,VWS V14.01,2013-05-13 19:41:00,
2013-05-13 15:46:00,66.3,36.4,30.09,West,277,10.0,12.0,33,0.00,,---,0.00,VWS V14.01,2013-05-13 19:46:00,
2013-05-13 15:51:00,66.2,34.7,30.09,NW,304,8.0,17.0,31,0.00,,---,0.00,VWS V14.01,2013-05-13 19:51:00,
2013-05-13 15:56:00,66.2,34.7,30.09,West,267,11.0,14.0,31,0.00,,---,0.00,VWS V14.01,2013-05-13 19:56:00,
2013-05-13 16:01:00,66.2,35.5,30.08,WSW,241,10.0,13.0,32,0.00,,---,0.00,VWS V14.01,2013-05-13 20:01:00,
2013-05-13 16:06:00,67.1,36.3,30.08,WNW,294,10.0,15.0,32,0.00,,---,0.00,VWS V14.01,2013-05-13 20:06:00,
2013-05-13 16:11:00,66.7,33.5,30.08,WNW,300,7.0,13.0,29,0.00,,---,0.00,VWS V14.01,2013-05-13 20:11:00,
2013-05-13 16:16:00,66.4,34.0,30.08,WNW,294,0.0,7.0,30,0.00,,---,0.00,VWS V14.01,2013-05-13 20:16:00,
2013-05-13 16:21:00,66.4,34.0,30.08,WSW,238,4.0,8.0,30,0.00,,---,0.00,VWS V14.01,2013-05-13 20:21:00,
2013-05-13 16:26:00,66.8,35.2,30.08,NW,320,2.0,8.0,31,0.00,,---,0.00,VWS V14.01,2013-05-13 20:26:00,
2013-05-13 16:31:00,67.0,35.4,30.08,West,262,1.0,13.0,31,0.00,,---,0.00,VWS V14.01,2013-05-13 20:31:00,
2013-05-13 16:36:00,67.1,32.0,30.08,WNW,283,7.0,14.0,27,0.00,,---,0.00,VWS V14.01,2013-05-13 20:36:00,
2013-05-13 16:41:00,67.1,34.7,30.08,SE,124,1.0,10.0,30,0.00,,---,0.00,VWS V14.01,2013-05-13 20:41:00,
2013-05-13 16:46:00,67.4,34.1,30.08,West,262,0.0,6.0,29,0.00,,---,0.00,VWS V14.01,2013-05-13 20:46:00,
2013-05-13 16:51:00,67.6,35.1,30.08,NW,312,4.0,8.0,30,0.00,,---,0.00,VWS V14.01,2013-05-13 20:51:00,
2013-05-13 16:56:00,67.8,34.4,30.08,WNW,303,2.0,9.0,29,0.00,,---,0.00,VWS V14.01,2013-05-13 20:56:00,
2013-05-13 17:01:00,67.6,32.5,30.08,West,276,0.0,6.0,27,0.00,,---,0.00,VWS V14.01,2013-05-13 21:01:00,
2013-05-13 17:06:00,67.4,32.3,30.08,WNW,294,2.0,13.0,27,0.00,,---,0.00,VWS V14.01,2013-05-13 21:06:00,
2013-05-13 17:11:00,67.3,33.1,30.07,NW,309,0.0,9.0,28,0.00,,---,0.00,VWS V14.01,2013-05-13 21:11:00,
2013-05-13 17:16:00,67.8,34.4,30.07,West,260,2.0,7.0,29,0.00,,---,0.00,VWS V14.01,2013-05-13 21:16:00,
2013-05-13 17:21:00,68.1,35.5,30.07,North,358,0.0,11.0,30,0.00,,---,0.00,VWS V14.01,2013-05-13 21:21:00,
2013-05-13 17:26:00,68.1,33.8,30.07,NE,40,1.0,9.0,28,0.00,,---,0.00,VWS V14.01,2013-05-13 21:26:00,
2013-05-13 17:31:00,67.9,33.6,30.07,North,8,1.0,10.0,28,0.00,,---,0.00,VWS V14.01,2013-05-13 21:31:00,
2013-05-13 17:36:00,67.8,33.5,30.07,West,279,1.0,9.0,28,0.00,,---,0.00,VWS V14.01,2013-05-13 21:36:00,
2013-05-13 17:41:00,67.8,33.5,30.07,NW,309,5.0,9.0,28,0.00,,---,0.00,VWS V14.01,2013-05-13 21:41:00,
2013-05-13 17:46:00,68.1,35.5,30.07,NNW,344,3.0,6.0,30,0.00,,---,0.00,VWS V14.01,2013-05-13 21:46:00,
2013-05-13 17:51:00,68.1,32.0,30.06,NNW,346,6.0,12.0,26,0.00,,---,0.00,VWS V14.01,2013-05-13 21:51:00,
2013-05-13 17:56:00,68.1,32.0,30.07,NW,318,3.0,11.0,26,0.00,,---,0.00,VWS V14.01,2013-05-13 21:56:00,
2013-05-13 18:01:00,68.4,33.1,30.06,NNW,329,4.0,11.0,27,0.00,,---,0.00,VWS V14.01,2013-05-13 22:01:00,
2013-05-13 18:06:00,68.1,30.0,30.07,WNW,301,5.0,13.0,24,0.00,,---,0.00,VWS V14.01,2013-05-13 22:06:00,
2013-05-13 18:11:00,68.0,28.9,30.06,WNW,295,4.0,15.0,23,0.00,,---,0.00,VWS V14.01,2013-05-13 22:11:00,
2013-05-13 18:16:00,67.8,30.7,30.06,WNW,293,3.0,9.0,25,0.00,,---,0.00,VWS V14.01,2013-05-13 22:16:00,
2013-05-13 18:21:00,67.8,30.7,30.06,NNW,338,4.0,10.0,25,0.00,,---,0.00,VWS V14.01,2013-05-13 22:21:00,
2013-05-13 18:26:00,67.9,33.6,30.06,NNW,333,3.0,5.0,28,0.00,,---,0.00,VWS V14.01,2013-05-13 22:26:00,
2013-05-13 18:31:00,68.3,34.0,30.07,NNW,339,3.0,6.0,28,0.00,,---,0.00,VWS V14.01,2013-05-13 22:31:00,
2013-05-13 18:36:00,68.3,34.8,30.06,NE,45,1.0,8.0,29,0.00,,---,0.00,VWS V14.01,2013-05-13 22:36:00,
2013-05-13 18:41:00,68.4,34.0,30.07,North,350,4.0,4.0,28,0.00,,---,0.00,VWS V14.01,2013-05-13 22:41:00,
2013-05-13 18:46:00,68.2,33.0,30.06,NW,321,2.0,11.0,27,0.00,,---,0.00,VWS V14.01,2013-05-13 22:46:00,
2013-05-13 18:51:00,68.2,33.9,30.06,NNW,342,2.0,7.0,28,0.00,,---,0.00,VWS V14.01,2013-05-13 22:51:00,
2013-05-13 18:56:00,68.1,32.9,30.07,WNW,291,4.0,6.0,27,0.00,,---,0.00,VWS V14.01,2013-05-13 22:56:00,
2013-05-13 19:01:00,67.9,34.5,30.07,NNE,25,0.0,6.0,29,0.00,,---,0.00,VWS V14.01,2013-05-13 23:01:00,
2013-05-13 19:06:00,68.1,34.7,30.07,NNW,343,1.0,2.0,29,0.00,,---,0.00,VWS V14.01,2013-05-13 23:06:00,
2013-05-13 19:11:00,68.1,33.8,30.07,West,263,3.0,5.0,28,0.00,,---,0.00,VWS V14.01,2013-05-13 23:11:00,
2013-05-13 19:16:00,67.9,35.3,30.07,NW,314,0.0,3.0,30,0.00,,---,0.00,VWS V14.01,2013-05-13 23:16:00,
2013-05-13 19:21:00,68.1,34.7,30.07,NW,318,0.0,3.0,29,0.00,,---,0.00,VWS V14.01,2013-05-13 23:21:00,
2013-05-13 19:26:00,67.9,35.3,30.07,NW,320,0.0,4.0,30,0.00,,---,0.00,VWS V14.01,2013-05-13 23:26:00,
2013-05-13 19:31:00,67.8,36.1,30.08,NNW,340,0.0,1.0,31,0.00,,---,0.00,VWS V14.01,2013-05-13 23:31:00,
2013-05-13 19:36:00,67.9,35.3,30.08,NW,324,1.0,2.0,30,0.00,,---,0.00,VWS V14.01,2013-05-13 23:36:00,
2013-05-13 19:41:00,67.5,36.6,30.08,NW,325,0.0,4.0,32,0.00,,---,0.00,VWS V14.01,2013-05-13 23:41:00,
2013-05-13 19:46:00,67.1,36.3,30.08,WNW,288,1.0,4.0,32,0.00,,---,0.00,VWS V14.01,2013-05-13 23:46:00,
2013-05-13 19:51:00,66.6,36.6,30.08,NNW,330,0.0,2.0,33,0.00,,---,0.00,VWS V14.01,2013-05-13 23:51:00,
2013-05-13 19:56:00,66.1,36.2,30.08,NW,304,0.0,2.0,33,0.00,,---,0.00,VWS V14.01,2013-05-13 23:56:00,
2013-05-13 20:01:00,65.5,35.7,30.08,West,269,1.0,2.0,33,0.00,,---,0.00,VWS V14.01,2013-05-14 00:01:00,
2013-05-13 20:06:00,65.0,34.5,30.09,West,274,0.0,2.0,32,0.00,,---,0.00,VWS V14.01,2013-05-14 00:06:00,
2013-05-13 20:11:00,64.4,33.9,30.09,West,271,0.0,2.0,32,0.00,,---,0.00,VWS V14.01,2013-05-14 00:11:00,
2013-05-13 20:16:00,64.0,32.8,30.09,West,266,1.0,3.0,31,0.00,,---,0.00,VWS V14.01,2013-05-14 00:16:00,
2013-05-13 20:21:00,63.7,32.5,30.09,NW,314,0.0,4.0,31,0.00,,---,0.00,VWS V14.01,2013-05-14 00:21:00,
2013-05-13 20:26:00,63.3,33.0,30.10,WNW,293,0.0,2.0,32,0.00,,---,0.00,VWS V14.01,2013-05-14 00:26:00,
2013-05-13 20:31:00,62.8,34.8,30.10,WNW,297,1.0,1.0,35,0.00,,---,0.00,VWS V14.01,2013-05-14 00:31:00,
2013-05-13 20:36:00,62.0,36.8,30.11,NW,312,1.0,2.0,39,0.00,,---,0.00,VWS V14.01,2013-05-14 00:36:00,
2013-05-13 20:41:00,60.8,36.3,30.11,NNW,335,0.0,2.0,40,0.00,,---,0.00,VWS V14.01,2013-05-14 00:41:00,
2013-05-13 20:46:00,60.0,38.0,30.11,NNW,336,0.0,0.0,44,0.00,,---,0.00,VWS V14.01,2013-05-14 00:46:00,
2013-05-13 20:51:00,59.3,37.4,30.12,NW,326,0.0,1.0,44,0.00,,---,0.00,VWS V14.01,2013-05-14 00:51:00,
2013-05-13 20:56:00,58.8,38.6,30.12,NNE,30,0.0,3.0,47,0.00,,---,0.00,VWS V14.01,2013-05-14 00:56:00,
2013-05-13 21:01:00,58.0,41.5,30.12,NW,323,0.0,1.0,54,0.00,,---,0.00,VWS V14.01,2013-05-14 01:01:00,
2013-05-13 21:06:00,56.9,40.4,30.13,NNW,347,0.0,1.0,54,0.00,,---,0.00,VWS V14.01,2013-05-14 01:06:00,
2013-05-13 21:11:00,56.3,41.7,30.13,NNW,343,0.0,2.0,58,0.00,,---,0.00,VWS V14.01,2013-05-14 01:11:00,
2013-05-13 21:16:00,55.9,42.2,30.13,NW,314,0.0,3.0,60,0.00,,---,0.00,VWS V14.01,2013-05-14 01:16:00,
2013-05-13 21:21:00,55.7,39.8,30.14,NNW,337,0.0,5.0,55,0.00,,---,0.00,VWS V14.01,2013-05-14 01:21:00,
2013-05-13 21:26:00,55.6,42.0,30.14,NNW,330,0.0,3.0,60,0.00,,---,0.00,VWS V14.01,2013-05-14 01:26:00,
2013-05-13 21:31:00,55.5,37.7,30.14,NNW,344,4.0,4.0,51,0.00,,---,0.00,VWS V14.01,2013-05-14 01:31:00,
2013-05-13 21:36:00,55.9,40.0,30.14,NNW,331,0.0,4.0,55,0.00,,---,0.00,VWS V14.01,2013-05-14 01:36:00,
2013-05-13 21:41:00,55.9,38.5,30.15,NNW,347,4.0,5.0,52,0.00,,---,0.00,VWS V14.01,2013-05-14 01:41:00,
2013-05-13 21:46:00,56.3,36.3,30.15,North,350,1.0,7.0,47,0.00,,---,0.00,VWS V14.01,2013-05-14 01:46:00,
2013-05-13 21:51:00,56.6,36.1,30.15,NNW,347,2.0,5.0,46,0.00,,---,0.00,VWS V14.01,2013-05-14 01:51:00,
2013-05-13 21:56:00,56.8,35.1,30.15,NW,322,4.0,7.0,44,0.00,,---,0.00,VWS V14.01,2013-05-14 01:56:00,
2013-05-13 22:01:00,56.9,35.2,30.15,NNW,340,3.0,6.0,44,0.00,,---,0.00,VWS V14.01,2013-05-14 02:01:00,
2013-05-13 22:06:00,56.9,35.2,30.16,North,359,2.0,7.0,44,0.00,,---,0.00,VWS V14.01,2013-05-14 02:06:00,
2013-05-13 22:11:00,56.7,35.6,30.16,NNW,345,0.0,4.0,45,0.00,,---,0.00,VWS V14.01,2013-05-14 02:11:00,
2013-05-13 22:16:00,56.5,35.4,30.16,NNW,340,1.0,5.0,45,0.00,,---,0.00,VWS V14.01,2013-05-14 02:16:00,
2013-05-13 22:21:00,56.3,35.2,30.16,North,4,0.0,3.0,45,0.00,,---,0.00,VWS V14.01,2013-05-14 02:21:00,
2013-05-13 22:26:00,56.1,35.1,30.16,NNW,346,1.0,2.0,45,0.00,,---,0.00,VWS V14.01,2013-05-14 02:26:00,
2013-05-13 22:31:00,55.8,35.9,30.17,NNE,14,0.0,1.0,47,0.00,,---,0.00,VWS V14.01,2013-05-14 02:31:00,
2013-05-13 22:36:00,55.3,36.5,30.17,NNE,15,0.0,1.0,49,0.00,,---,0.00,VWS V14.01,2013-05-14 02:36:00,
2013-05-13 22:41:00,54.8,35.5,30.17,NNE,15,0.0,0.0,48,0.00,,---,0.00,VWS V14.01,2013-05-14 02:41:00,
2013-05-13 22:46:00,54.2,37.0,30.17,NNE,14,0.0,0.0,52,0.00,,---,0.00,VWS V14.01,2013-05-14 02:46:00,
2013-05-13 22:51:00,53.6,34.9,30.18,NNE,14,0.0,0.0,49,0.00,,---,0.00,VWS V14.01,2013-05-14 02:51:00,
2013-05-13 22:56:00,53.4,34.7,30.18,NNE,13,0.0,1.0,49,0.00,,---,0.00,VWS V14.01,2013-05-14 02:56:00,
2013-05-13 23:01:00,53.5,35.3,30.18,NW,313,0.0,2.0,50,0.00,,---,0.00,VWS V14.01,2013-05-14 03:01:00,
2013-05-13 23:06:00,53.4,36.7,30.18,NW,314,0.0,0.0,53,0.00,,---,0.00,VWS V14.01,2013-05-14 03:06:00,
2013-05-13 23:11:00,53.1,36.9,30.18,NNW,338,0.0,1.0,54,0.00,,---,0.00,VWS V14.01,2013-05-14 03:11:00,
2013-05-13 23:16:00,52.8,36.2,30.18,NNW,346,0.0,1.0,53,0.00,,---,0.00,VWS V14.01,2013-05-14 03:16:00,
2013-05-13 23:21:00,52.7,36.5,30.19,NNE,22,0.0,2.0,54,0.00,,---,0.00,VWS V14.01,2013-05-14 03:21:00,
2013-05-13 23:26:00,52.7,35.1,30.19,North,1,0.0,1.0,51,0.00,,---,0.00,VWS V14.01,2013-05-14 03:26:00,
2013-05-13 23:31:00,52.5,34.9,30.19,North,1,0.0,0.0,51,0.00,,---,0.00,VWS V14.01,2013-05-14 03:31:00,
2013-05-13 23:36:00,52.2,34.6,30.19,North,1,0.0,1.0,51,0.00,,---,0.00,VWS V14.01,2013-05-14 03:36:00,
2013-05-13 23:41:00,51.9,35.3,30.18,North,1,0.0,0.0,53,0.00,,---,0.00,VWS V14.01,2013-05-14 03:41:00,
2013-05-13 23:46:00,51.6,36.4,30.19,North,1,0.0,0.0,56,0.00,,---,0.00,VWS V14.01,2013-05-14 03:46:00,
2013-05-13 23:51:00,51.2,37.4,30.19,North,1,0.0,0.0,59,0.00,,---,0.00,VWS V14.01,2013-05-14 03:51:00,
2013-05-13 23:56:00,50.5,36.7,30.19,North,1,0.0,0.0,59,0.00,,---,0.00,VWS V14.01,2013-05-14 03:56:00,